Station ANVC1 - 9416841 - Arena Cove, CA Image indicating link to RSS feed of recent meteorological observations for station ANVC1


Conditions at ANVC1 as of
(11:30 pm PDT on 04/18/2024)
0630 GMT on 04/19/2024:
     

Click on the graph icon in the table below to see a time series plot of the last five days of that observation.

5-day plot - Wind Direction Wind Direction (WDIR): E ( 100 deg true )
5-day plot - Wind Speed Wind Speed (WSPD): 4.1 kts
5-day plot - Wind Gust Wind Gust (GST): 4.1 kts
5-day plot - Atmospheric Pressure Atmospheric Pressure (PRES):29.95 in
5-day plot - Air Temperature Air Temperature (ATMP): 49.1 °F
5-day plot - Water Temperature Water Temperature (WTMP): 50.7 °F
5-day plot - Wind Chill Wind Chill (CHILL): 47.3 °F
5-day plot - Wind Speed at 10 Meters Wind Speed at 10 meters (WSPD10M): 3.9 kts
5-day plot - Wind Speed at 20 Meters Wind Speed at 20 meters (WSPD20M): 3.9 kts
5-day plot -  Wind Speed, Wind Gust and Atmospheric Pressure Combined plot of Wind Speed, Gust, and Air Pressure
NOS Water Level Observation Network Water Level
Previous observations
TIME
(PDT)
5-day plot - Wind Direction
WDIR
 
5-day plot - Wind Speed
WSPD
kts
5-day plot - Wind Gust
GST
kts
5-day plot - Wave Height
WVHT
ft
5-day plot - Dominant Wave Period
DPD
sec
5-day plot - Average Wave Period
APD
sec
5-day plot - Mean Wave Direction
MWD
 
5-day plot - Atmospheric Pressure
PRES
in
5-day plot - Pressure Tendency
PTDY
in
5-day plot - Air Temperature
ATMP
°F
5-day plot - Water Temperature
WTMP
°F
5-day plot - Dew Point
DEWP
°F
5-day plot - Salinity
SAL
psu
5-day plot - Visibility
VIS
nmi
5-day plot - Tide (above MLLW)
TIDE
ft
2024-04-18 11:24 pm E 4.1 4.1----29.95- 49.1 50.7----
2024-04-18 11:18 pmESE 4.1 4.1----29.95-- 50.7----
2024-04-18 11:12 pm E 2.9 4.1----29.95- 49.5 50.7----
2024-04-18 11:06 pmESE 2.9 5.1----29.95- 50.2 50.7----
2024-04-18 11:00 pmESE 2.9 4.1----29.95+0.02 50.5 50.7----
2024-04-18 10:54 pm E 1.9 4.1----29.94- 50.4 50.7----
2024-04-18 10:48 pm E 1.9 2.9----29.94- 50.4 50.7----
2024-04-18 10:42 pm E 1.0 2.9----29.94- 50.2 50.9----
2024-04-18 10:36 pm- 0.0 1.9----29.95- 50.4 50.9----
2024-04-18 10:30 pm- 0.0 1.9----29.95- 49.8 50.9----
2024-04-18 10:24 pm- 0.0 1.0----29.94- 49.8 50.9----
2024-04-18 10:18 pm- 0.0 1.9----29.94-------
2024-04-18 10:12 pm E 1.9 4.1----29.94- 50.0 50.7----
2024-04-18 10:06 pm E 1.0 1.9----29.94- 50.4 50.7----
2024-04-18 10:00 pmENE 1.9 4.1----29.94+0.01 50.5 50.7----
2024-04-18 09:54 pm E 4.1 5.1----29.94- 50.5 50.7----
2024-04-18 09:48 pm E 5.1 6.0----29.94- 50.9 50.7----
2024-04-18 09:42 pm E 4.1 6.0----29.94- 50.9 50.9----
2024-04-18 09:36 pm E 4.1 5.1----29.94- 50.9 50.9----
2024-04-18 09:30 pmENE 1.9 4.1----29.94- 50.9 50.9----
2024-04-18 09:24 pmENE 1.9 4.1----29.94- 51.1 50.9----
2024-04-18 09:18 pmESE 2.9 5.1----29.94-- 50.9----
2024-04-18 09:12 pm E 2.9 5.1----29.93- 51.1 50.9----
2024-04-18 09:06 pm E 1.9 5.1----29.93- 51.3 50.9----
2024-04-18 09:00 pm NE 1.9 5.1----29.93+0.00 51.3 50.9----
2024-04-18 08:54 pmENE 2.9 6.0----29.93- 51.4 50.9----
2024-04-18 08:48 pm E 1.9 5.1----29.93- 51.6 50.9----
2024-04-18 08:42 pm E 1.9 4.1----29.93- 51.6 50.9----
2024-04-18 08:36 pmENE 1.9 4.1----29.93- 51.8 50.9----
2024-04-18 08:30 pmWNW 1.9 4.1----29.93- 51.8 50.9----
2024-04-18 08:24 pm NW 2.9 4.1----29.93- 52.0 51.1----
2024-04-18 08:18 pm N 1.0 1.9----29.93- 52.2 51.3----
2024-04-18 08:12 pm- 0.0 4.1----29.93- 52.2 51.3----
2024-04-18 08:06 pm- 0.0 2.9----29.92- 52.3 51.1----
2024-04-18 08:00 pm E 1.9 5.1----29.92-0.02 52.5 51.1----
2024-04-18 07:54 pm- 0.0 2.9----29.92- 52.5 51.1----
2024-04-18 07:48 pm E 1.9 5.1----29.92-- 50.9----
2024-04-18 07:42 pm- 0.0 2.9----29.92- 52.9 51.1----
2024-04-18 07:36 pmWNW 1.9 2.9----29.93- 53.1 51.1----
2024-04-18 07:30 pm NW 2.9 5.1----29.93- 53.1 51.1----
2024-04-18 07:24 pm NW 2.9 4.1----29.93- 53.2 51.1----
2024-04-18 07:18 pm W 1.9 6.0----29.93-------
2024-04-18 07:12 pmWNW 2.9 6.0----29.93- 53.2 50.9----
2024-04-18 07:06 pmNNW 1.0 4.1----29.93- 53.4 51.1----
2024-04-18 07:00 pmWNW 2.9 6.0----29.93-0.01 53.6 51.1----
2024-04-18 06:54 pmWNW 2.9 6.0----29.93- 53.6 51.3----
2024-04-18 06:48 pmWNW 2.9 8.0----29.93-- 51.1----
2024-04-18 06:42 pm W 1.9 6.0----29.93- 54.0 51.1----
2024-04-18 06:36 pm NW 5.1 7.0----29.93- 54.1 51.1----
2024-04-18 06:30 pm W 4.1 6.0----29.93- 54.7 51.3----
2024-04-18 06:24 pmWNW 4.1 7.0----29.93- 54.9 51.1----
2024-04-18 06:18 pm NW 2.9 7.0----29.93- 55.2 51.3----
2024-04-18 06:12 pmNNW 2.9 6.0----29.93- 55.6 51.4----
2024-04-18 06:06 pm NW 4.1 7.0----29.93- 55.8 51.3----
2024-04-18 06:00 pm NW 5.1 8.0----29.93-0.03 55.9 51.3----
2024-04-18 05:54 pmWNW 2.9 8.0----29.93- 56.5 51.1----
2024-04-18 05:48 pm NW 2.9 7.0----29.93- 56.8 51.4----
2024-04-18 05:42 pm W 4.1 7.0----29.93- 57.4 51.4----
2024-04-18 05:36 pmWNW 2.9 9.9----29.93- 57.6 51.4----
2024-04-18 05:30 pmWNW 2.9 7.0----29.93- 57.7 51.4----
2024-04-18 05:24 pmWNW 4.1 8.9----29.94- 57.9 51.4----
2024-04-18 05:18 pmWNW 5.1 8.0----29.94-- 51.4----
2024-04-18 05:12 pmWNW 6.0 8.9----29.94- 57.9 51.6----
2024-04-18 05:06 pmWNW 4.1 7.0----29.94- 57.7 51.3----
2024-04-18 05:00 pm W 2.9 5.1----29.94-0.02 57.4 51.4----
2024-04-18 04:54 pmWNW 2.9 8.0----29.94- 57.0 51.4----
2024-04-18 04:48 pm NW 4.1 8.9----29.94- 56.7 51.1----
2024-04-18 04:42 pmWNW 5.1 8.0----29.94- 56.3 51.4----
2024-04-18 04:36 pmWNW 5.1 8.9----29.94- 56.7 51.4----
2024-04-18 04:30 pm W 8.0 11.1----29.94- 57.9 51.4----
2024-04-18 04:24 pm NW 6.0 9.9----29.94- 59.2 51.4----
2024-04-18 04:18 pmWNW 5.1 9.9----29.94- 58.8 51.1----
2024-04-18 04:12 pmWNW 5.1 8.9----29.94- 58.8 51.3----
2024-04-18 04:06 pmWNW 6.0 8.9----29.94- 59.2 51.4----
2024-04-18 04:00 pmWNW 6.0 8.9----29.94-0.02 59.2 51.4----
2024-04-18 03:54 pmWNW 5.1 9.9----29.95- 59.4 51.1----
2024-04-18 03:48 pm W 5.1 8.0----29.95- 59.2 51.3----
2024-04-18 03:42 pmWNW 5.1 11.1----29.95- 59.2 51.6----
2024-04-18 03:36 pmWNW 6.0 8.9----29.95- 58.8 51.4----
2024-04-18 03:30 pmWNW 5.1 8.9----29.95- 59.0 51.8----
2024-04-18 03:24 pmWNW 5.1 8.0----29.95- 59.2 51.3----
2024-04-18 03:18 pmWNW 4.1 8.0----29.95- 58.8 51.3----
2024-04-18 03:12 pmWNW 5.1 8.9----29.95- 58.6 51.3----
2024-04-18 03:06 pmWNW 5.1 8.9----29.96- 58.5 50.9----
2024-04-18 03:00 pm W 6.0 8.0----29.96-0.03- 51.1----
2024-04-18 02:54 pmWNW 7.0 11.1----29.96-- 51.1----
2024-04-18 02:48 pmWNW 8.9 9.9----29.96- 57.7 51.1----
2024-04-18 02:42 pmWNW 6.0 8.9----29.96- 58.8 50.9----
2024-04-18 02:36 pmWNW 6.0 8.0----29.96- 58.6 50.7----
2024-04-18 02:30 pm W 5.1 8.9----29.96- 57.4 50.7----
2024-04-18 02:24 pmWNW 7.0 8.0----29.96- 56.8 50.5----
2024-04-18 02:18 pmWNW 7.0 9.9----29.96- 56.3 50.7----
2024-04-18 02:12 pmWNW 8.9 9.9----29.96- 55.8 50.5----
2024-04-18 02:06 pm W 8.9 11.1----29.96- 56.7 50.4----
2024-04-18 02:00 pmWNW 8.0 9.9----29.96-0.02 56.7 50.7----
2024-04-18 01:54 pmWNW 7.0 11.1----29.96- 57.6 50.7----
2024-04-18 01:48 pmWNW 9.9 9.9----29.96- 57.0 50.7----
2024-04-18 01:42 pm W 7.0 8.9----29.96- 58.3 50.5----
2024-04-18 01:36 pmWNW 6.0 8.0----29.96- 58.5 50.5----
2024-04-18 01:30 pm W 7.0 8.0----29.96- 57.9 50.5----
2024-04-18 01:24 pm W 7.0 8.0----29.96- 56.1 50.4----
2024-04-18 01:18 pm W 7.0 8.0----29.96-- 50.2----
2024-04-18 01:12 pm W 7.0 8.0----29.96- 54.9 50.5----
2024-04-18 01:06 pm W 7.0 7.0----29.96- 54.1 50.4----
2024-04-18 01:00 pm W 6.0 6.0----29.96+0.00 53.6 50.4----
2024-04-18 12:54 pm W 6.0 6.0----29.97- 53.4 50.5----
2024-04-18 12:48 pm W 5.1 6.0----29.97- 52.9 50.2----
2024-04-18 12:42 pm W 4.1 4.1----29.97- 52.7 50.4----
2024-04-18 12:36 pm W 4.1 4.1----29.97- 52.3 50.4----
2024-04-18 12:30 pmWSW 2.9 2.9----29.98- 52.5 50.2----
2024-04-18 12:24 pmWSW 1.9 2.9----29.98- 52.3 50.0----
2024-04-18 12:18 pmWSW 1.0 1.9----29.98- 52.5 50.2----
2024-04-18 12:12 pmWSW 1.9 1.9----29.98- 52.3 50.2----
2024-04-18 12:06 pmWSW 1.0 2.9----29.98- 52.2 50.2----
2024-04-18 12:00 pm SW 1.9 1.9----29.98+0.03 52.0 50.2----
2024-04-18 11:54 am SW 1.9 2.9----29.98- 52.0 50.0----
2024-04-18 11:48 amWSW 1.9 1.9----29.98- 52.0 50.0----
2024-04-18 11:42 am SW 1.9 2.9----29.98- 51.8 50.2----
2024-04-18 11:36 am SW 1.9 2.9----29.98- 51.8 50.2----
2024-04-18 11:30 amWSW 1.0 1.9----29.98- 52.0 50.0----
2024-04-18 11:24 am SW 1.9 1.9----29.98- 51.8 50.0----
2024-04-18 11:18 am SW 1.9 1.9----29.98-- 50.0----
2024-04-18 11:12 am SW 1.0 1.9----29.98- 51.8 50.0----
2024-04-18 11:06 am- 0.0 1.9----29.98- 51.6 50.0----
2024-04-18 11:00 am W 1.0 1.0----29.98+0.02 52.0 50.0----
2024-04-18 10:54 amWSW 1.0 1.9----29.98- 51.6 50.0----
2024-04-18 10:48 am SW 1.0 1.9----29.98- 51.4 49.8----
2024-04-18 10:42 am SW 1.9 2.9----29.98- 51.3 50.0----
2024-04-18 10:36 am SW 1.9 1.9----29.98- 51.3 50.0----
2024-04-18 10:30 am SW 1.0 1.9----29.97- 51.4 49.8----
2024-04-18 10:24 amWSW 1.0 1.9----29.97- 51.4 49.8----
2024-04-18 10:18 amSSW 1.9 2.9----29.97- 51.3 49.8----
2024-04-18 10:12 am- 0.0 1.0----29.97- 51.4 49.8----
2024-04-18 10:06 am- 0.0 1.0----29.96- 51.4 50.2----
2024-04-18 10:00 am W 1.0 2.9----29.96+0.02 51.3 49.6----
2024-04-18 09:54 am SW 1.0 1.9----29.96- 51.1 49.6----
2024-04-18 09:48 am- 0.0 1.9----29.96- 51.4 49.6----
2024-04-18 09:42 am- 0.0 1.9----29.96- 51.4 49.6----
2024-04-18 09:36 am- 0.0 1.0----29.96- 51.6 49.6----
2024-04-18 09:30 am W 1.0 1.9----29.96- 51.4 49.6----
2024-04-18 09:24 amWSW 1.9 1.9----29.96- 51.3 49.6----
2024-04-18 09:18 am- 0.0 1.0----29.96-- 49.6----
2024-04-18 09:12 am NW 1.0 2.9----29.96- 51.1 49.5----
2024-04-18 09:06 amWSW 2.9 2.9----29.96- 50.9 49.5----
2024-04-18 09:00 amWSW 1.9 4.1----29.96+0.01 51.1 49.5----
2024-04-18 08:54 am SW 1.9 4.1----29.96- 51.1 49.5----
2024-04-18 08:48 amSSW 2.9 2.9----29.96- 51.1 49.5----
2024-04-18 08:42 am SW 1.0 1.9----29.96- 51.4 49.5----
2024-04-18 08:36 am- 0.0 0.0----29.96- 52.3 49.5----
2024-04-18 08:30 am- 0.0 1.0----29.96- 52.5 49.5----
2024-04-18 08:24 am- 0.0 1.0----29.96- 52.7 50.0----
2024-04-18 08:18 am- 0.0 1.9----29.96- 52.5 49.6----
2024-04-18 08:12 amESE 1.0 1.9----29.96- 51.1 49.5----
2024-04-18 08:06 amESE 1.9 2.9----29.96- 50.5 49.5----
2024-04-18 08:00 amESE 2.9 4.1----29.96+0.01 50.0 49.5----
2024-04-18 07:54 amESE 2.9 5.1----29.96- 49.6 49.5----
2024-04-18 07:48 am E 4.1 6.0------------
2024-04-18 07:42 amESE 5.1 5.1------------
2024-04-18 07:36 amENE 1.9 5.1------------
2024-04-18 07:30 amENE 2.9 6.0----29.95- 47.3 49.5----
2024-04-18 07:24 amENE 4.1 6.0----29.95- 46.9 49.5----
2024-04-18 07:18 amENE 4.1 5.1----29.95- 46.6 49.6----
2024-04-18 07:12 amENE 2.9 5.1----29.95- 46.9 49.5----
2024-04-18 07:06 am NE 2.9 6.0----29.95- 46.9 49.5----
2024-04-18 07:00 amENE 5.1 7.0----29.95+0.00 46.6 49.5----
2024-04-18 06:54 amENE 5.1 7.0----29.95- 46.2 49.5----
2024-04-18 06:48 amNNE 2.9 5.1----29.95- 46.9 49.5----
2024-04-18 06:42 am E 4.1 5.1----29.96- 46.4 49.5----
2024-04-18 06:36 am E 4.1 5.1----29.96- 45.9 49.5----
2024-04-18 06:30 amENE 1.9 2.9----29.95- 45.7 49.5----
2024-04-18 06:24 am E 1.9 4.1----29.95- 45.9 49.5----
2024-04-18 06:18 amESE 1.9 4.1------------
2024-04-18 06:12 am E 1.9 4.1----29.94- 45.9 49.5----
2024-04-18 06:06 amENE 2.9 5.1----29.94- 46.0 49.5----
2024-04-18 06:00 am E 2.9 5.1----29.94-0.01 46.4 49.5----
2024-04-18 05:54 amESE 2.9 5.1----29.94- 46.9 49.5----
2024-04-18 05:48 am E 2.9 5.1----29.94- 46.6 49.5----
2024-04-18 05:42 am- 0.0 4.1----29.94- 46.2 49.5----
2024-04-18 05:36 amESE 1.9 5.1----29.94- 46.6 49.5----
2024-04-18 05:30 amESE 2.9 5.1----29.94- 46.2 49.5----
2024-04-18 05:24 am E 1.9 6.0----29.94- 46.4 49.5----
2024-04-18 05:18 am E 2.9 6.0----29.94- 46.4 49.5----
2024-04-18 05:12 amESE 2.9 5.1----29.94- 46.2 49.5----
2024-04-18 05:06 am E 2.9 5.1----29.95- 46.0 49.5----
2024-04-18 05:00 amESE 2.9 5.1----29.95-0.01 46.0 49.5----
2024-04-18 04:54 amESE 2.9 5.1----29.95- 46.0 49.5----
2024-04-18 04:48 am E 2.9 5.1----29.95- 46.0 49.5----
2024-04-18 04:42 am E 2.9 5.1----29.95- 46.0 49.5----
2024-04-18 04:36 amESE 2.9 5.1----29.95- 45.7 49.5----
2024-04-18 04:30 am E 4.1 5.1----29.96- 45.7 49.5----
2024-04-18 04:24 am E 2.9 4.1----29.96- 45.9 49.5----
2024-04-18 04:18 am E 1.9 4.1----29.96- 45.3 49.5----
2024-04-18 04:12 am E 1.9 5.1----29.95- 45.1 49.5----
2024-04-18 04:06 am E 2.9 6.0----29.95- 45.1 49.5----
2024-04-18 04:00 am E 2.9 5.1----29.95-0.02 45.5 49.5----
2024-04-18 03:54 am E 4.1 5.1----29.95- 45.7 49.5----
2024-04-18 03:48 am E 1.9 5.1----29.95-- 49.5----
2024-04-18 03:42 amENE 1.9 4.1----29.95- 45.9 49.5----
2024-04-18 03:36 am E 2.9 5.1----29.95- 46.0 49.5----
2024-04-18 03:30 am E 1.9 5.1----29.95- 46.0 49.5----
2024-04-18 03:24 am E 2.9 4.1----29.95- 46.2 49.5----
2024-04-18 03:18 am E 2.9 5.1----29.95- 46.2 49.5----
2024-04-18 03:12 am NE 1.9 6.0----29.95- 46.4 49.5----
2024-04-18 03:06 am E 2.9 6.0----29.95- 46.2 49.5----
2024-04-18 03:00 am E 2.9 6.0----29.95-0.03 46.0 49.5----
2024-04-18 02:54 am E 2.9 6.0----29.95- 45.9 49.5----
2024-04-18 02:48 am E 2.9 6.0----29.95- 45.9 49.5----
2024-04-18 02:42 am E 2.9 5.1----29.96- 45.5 49.5----
2024-04-18 02:36 am E 4.1 7.0----29.96- 45.9 49.5----
2024-04-18 02:30 am E 2.9 6.0----29.96- 46.8 49.5----
2024-04-18 02:24 amESE 2.9 5.1----29.95- 46.4 49.5----
2024-04-18 02:18 am E 1.9 4.1----29.96-- 49.5----
2024-04-18 02:12 am- 0.0 1.9----29.96- 46.8 49.5----
2024-04-18 02:06 am- 0.0 1.0----29.95- 47.3 49.5----
2024-04-18 02:00 am N 1.0 5.1----29.96-0.03 47.8 49.5----
2024-04-18 01:54 amENE 4.1 7.0----29.96- 48.0 49.5----
2024-04-18 01:48 am E 5.1 8.9----29.96- 47.7 49.5----
2024-04-18 01:42 am E 6.0 8.9----29.96- 47.3 49.5----
2024-04-18 01:36 am E 4.1 6.0----29.96- 46.8 49.5----
2024-04-18 01:30 am E 5.1 7.0----29.96- 46.6 49.5----
2024-04-18 01:24 am E 4.1 5.1----29.97- 46.2 49.5----
2024-04-18 01:18 amENE 2.9 5.1----29.97- 46.0 49.5----
2024-04-18 01:12 am E 2.9 5.1----29.97- 46.0 49.5----
2024-04-18 01:06 am E 2.9 5.1----29.97- 46.4 49.6----
2024-04-18 01:00 am E 1.9 5.1----29.97-0.02 46.2 49.6----
2024-04-18 12:54 am E 2.9 6.0----29.97- 46.4 49.5----
2024-04-18 12:48 am E 4.1 6.0----29.98- 46.2 49.5----
2024-04-18 12:42 am E 2.9 5.1----29.98- 46.2 49.5----
2024-04-18 12:36 amENE 2.9 7.0----29.98- 46.0 49.5----
2024-04-18 12:30 am E 4.1 6.0----29.97- 46.4 49.5----
2024-04-18 12:24 am E 4.1 6.0----29.97- 46.2 49.5----
2024-04-18 12:18 amENE 2.9 6.0----29.98- 46.2 49.5----
2024-04-18 12:12 am E 2.9 6.0----29.98- 46.6 49.6----
2024-04-18 12:06 amENE 2.9 7.0----29.98- 46.4 49.6----
2024-04-18 12:00 am E 2.9 6.0----29.98-0.01 46.9 49.6----
2024-04-17 11:54 pmENE 4.1 5.1----29.98- 46.8 49.6----